Location: Newark
(42.8481°N, 0.4872°E)
Time: 17:21:00
(UTC+00:00)

Vanguard 3 - Pass Details

Date: 28 October 2020
Orbit: 508 x 3262 km, 33.3° (Epoch: 28 November)

Event Time Altitude Azimuth Distance (km) Brightness Sun altitude
Rises 09:08:46 0° 270° (W) 7,120 11.6 23.8°
Reaches altitude 10° 09:13:34 10° 267° (W) 6,185 11.4 24.4°
Maximum altitude 09:32:40 57° 196° (SSW) 3,306 11.0 26.5°
Drops below altitude 10° 09:46:48 10° 123° (ESE) 4,710 12.3 27.9°
Sets 09:49:54 0° 119° (ESE) 5,397 12.2 28.2°
